{"data":{"norad_id":68737,"epoch":"2026-05-25T04:48:19.247328Z","epoch_age_seconds":58035,"freshness":"FRESH","line1":"1 68737U 26082K   26145.20022277 -.00289129  00000+0 -38018-2 0  9993","line2":"2 68737  97.2845   8.8465 0002130  85.8286 274.3214 15.59378284  6160","mean_motion":15.59378284,"eccentricity":0.000213,"inclination_deg":97.2845,"raan_deg":8.8465,"arg_perigee_deg":85.8286,"mean_anomaly_deg":274.3214,"bstar":-0.0038018,"rev_number":616,"period_min":92.344494903842,"perigee_km":388.01378870432,"apogee_km":390.8967830181,"semimajor_km":6767.5922858612,"source":"CELESTRAK","updated_at":"2026-05-25T13:38:22.006353Z"}}